Tracking 23610 objects as of 19-Sep-2021
HD Live streaming from Space Station
objects crossing your sky now

ONEWEB-0293

Track ONEWEB-0293 now!
10-day predictions
ONEWEB-0293 is classified as:


NORAD ID: 49082
Int'l Code: 2021-075H
Perigee: 510.9 km
Apogee: 541.2 km
Inclination: 87.4 °
Period: 95.0 minutes
Semi major axis: 6897 km
RCS: Unknown
Launch date: August 21, 2021
Source: United Kingdom (UK)
Launch site: TYURATAM MISSILE AND SPACE COMPLEX (TTMTR)
aabbcc
Your satellite tracking list
Your tracking list is empty




NASA's NSSDC Master Catalog

Two Line Element Set (TLE):
1 49082U 21075H   21261.91667824 -.01011522  00000-0 -57436-1 0  9993
2 49082  87.4178 356.5242 0021973 190.2071  70.9673 15.15688965  3637
Source of the keplerian elements: AFSPC